Regional Weather Roundup
Issued by NWS

Home | Current Version | Previous Version | Text Only | Print | Product List | Glossary Off
Versions: 1 2 3 4 5 6 7 8 9 10 11 12 13 14 15 16 17 18 19 20 21 22 23 24 25 26 27 28 29 30 31 32 33 34 35 36 37 38 39 40 41 42 43 44 45 46 47 48 49 50

000
ASUS43 KBIS 301902
RWRND

NORTH DAKOTA REGIONAL WEATHER ROUNDUP
NATIONAL WEATHER SERVICE BISMARCK ND
200 PM CDT SUN AUG 30 2015

NOTE: "FAIR" INDICATES FEW OR NO CLOUDS BELOW 12,000 FEET WITH NO
SIGNIFICANT WEATHER AND/OR OBSTRUCTIONS TO VISIBILITY.


NDZ001>003-009>011-017-302000-
NORTHWEST NORTH DAKOTA

CITY           SKY/WX    TMP DP  RH WIND       PRES   REMARKS
WILLISTON      PTSUNNY   85  53  33 NW8       29.74R HAZE
MINOT          MOSUNNY   91  54  28 S10G21    29.61F
MINOT AFB      MOSUNNY   94  55  26 SW10G16   29.60S HX  92
$$

NDZ018>021-031>035-040>046-302000-
SOUTHWEST NORTH DAKOTA

CITY           SKY/WX    TMP DP  RH WIND       PRES   REMARKS
BISMARCK       CLOUDY    91  59  33 S13       29.68F HX  90
DICKINSON      CLOUDY    88  47  24 W17G24    29.72
GARRISON         N/A     90  58  33 S12       29.65F
HETTINGER ARPT CLOUDY    94  46  19 W17G23    29.74R HX  90
$$

NDZ004>008-012>016-024-026-027-054-302000-
NORTHEAST NORTH DAKOTA

CITY           SKY/WX    TMP DP  RH WIND       PRES   REMARKS
GRAND FORKS    PTSUNNY   84  68  58 S17G24    29.71F
GRND FRKS AFB  MOSUNNY   84  69  61 S18       29.71F
DEVILS LAKE    MOSUNNY   88  66  48 SE16      29.67F HX  90
$$

NDZ022-023-025-028>030-036>039-047>053-302000-
SOUTHEAST NORTH DAKOTA

CITY           SKY/WX    TMP DP  RH WIND       PRES   REMARKS
FARGO          SUNNY     85  66  53 S16G23    29.77F
JAMESTOWN      SUNNY     84  66  54 S17G24    29.73F
$$




USA.gov is the U.S. government's official web portal to all federal, state and local government web resources and services.